[[{"header":{"parameterUnit":"m.s-1","parameterCategory":1,"la1":30.2991,"la2":30.254,"lo1":-89.0895,"lo2":-89.0444,"dy":0.0017,"dx":0.0017,"nx":28,"ny":28,"refTime":"2025-01-02T09:00:00:Z","depth":0,"parameterNumber":2,"parameterNumberName":"U-component_of_WINDS"},"data":[0,0,0,0,0,0,0,0,0,0,0,0,0,0,0,0,0,0,0,0,0,0,0,0,0,0,0,0,0,0,0,0,0,0,0,0,0,0,0,0,0,0,0,0,0,0,0,0,0,0,0,0,0,0,0,0,0,0,0.041,0.041,0,0.0384,0.0384,0.0384,0.0381,0.0381,0.0382,0.0382,0.0354,0.0353,0.0352,0,0,0,0,0,0,0,0,0,0,0,0,0,0.0456,0.0456,0.041,0.041,0.041,0.0384,0.0384,0.0384,0.0381,0.0381,0.0382,0.0382,0.0354,0.0353,0.0352,0,0,0,0,0,0,0,0,0,0,0,0,0,0.0434,0.0455,0.041,0.0405,0.0405,0.0384,0.0384,0.0384,0.0381,0.0381,0.0382,0.0382,0.0355,0.0353,0.0352,0.0335,0,0,0.0347,0.0347,0,0,0,0,0,0,0,0,0.0435,0.0432,0.0406,0.0406,0.0405,0.0386,0.039,0.0367,0.0381,0.039,0.0382,0.0382,0.0364,0.0362,0.0356,0.0333,0.0332,0.0347,0.0346,0.0346,0.0345,0,0,0,0,0,0,0,0.0437,0.0433,0.04,0.0406,0.0405,0.0404,0.0401,0.0386,0.0375,0.0389,0.0389,0.0386,0.0364,0.0358,0.0356,0.0332,0.0347,0.0346,0.0345,0.0345,0.0293,0.0292,0,0,0,0,0,0,0.0439,0.0435,0.0401,0.0399,0.0421,0.0403,0.04,0.0392,0.0375,0.0373,0.0386,0.0386,0.036,0.0358,0.0355,0.0333,0.0346,0.0344,0.0344,0.0293,0.0293,0.0292,0,0,0,0,0,0,0.044,0.0436,0.0402,0.0417,0.0412,0.0402,0.0393,0.0391,0.0385,0.0373,0.0371,0.0381,0.036,0.0357,0.034,0.0332,0.0344,0.0342,0.0294,0.0293,0.0293,0.029,0,0,0,0,0,0,0.0442,0.0437,0.043,0.0417,0.0412,0.0388,0.0392,0.039,0.0382,0.0383,0.0368,0.0366,0.036,0.0342,0.0338,0.033,0.0341,0.0295,0.0294,0.0293,0.0291,0.0289,0.0288,0,0,0,0,0,0.0443,0.0431,0.043,0.0426,0.0403,0.0387,0.0384,0.0378,0.0382,0.0375,0.0367,0.0366,0.0334,0.034,0.0336,0.0327,0.0295,0.0294,0.0293,0.0291,0.0289,0.0288,0,0,0,0,0,0,0.0443,0.0429,0.0428,0.041,0.04,0.0387,0.0378,0.0377,0.0365,0.0365,0.0358,0.0355,0.0338,0.0331,0.0339,0.031,0.0315,0.0313,0.0315,0.0313,0.0312,0.0313,0.034,0,0,0,0,0,0.0441,0.0429,0.0417,0.0403,0.0398,0.0389,0.0381,0.0378,0.0367,0.0362,0.0353,0.0342,0.0329,0.0321,0.0308,0.029,0.0286,0.0282,0.028,0.0279,0.0278,0.0267,0.0264,0.0289,0.0289,0.0289,0,0,0.0437,0.0427,0.042,0.0403,0.0394,0.0382,0.0385,0.0372,0.0363,0.036,0.0343,0.0336,0.0323,0.0305,0.0297,0.0299,0.027,0.0278,0.0277,0.0276,0.0265,0.0263,0.0261,0.0288,0.0288,0.0288,0,0,0.0422,0.0414,0.0401,0.0392,0.038,0.0374,0.0371,0.0358,0.0353,0.0336,0.0334,0.0323,0.0301,0.0292,0.0284,0.0266,0.0265,0.0262,0.0255,0.0244,0.0242,0.0241,0.0234,0.0231,0.0261,0.0261,0.0261,0,0.0418,0.0399,0.0394,0.0381,0.0373,0.0371,0.0357,0.0349,0.0333,0.0327,0.033,0.0303,0.0294,0.0273,0.0269,0.0263,0.0259,0.0263,0.0243,0.0241,0.024,0.0233,0.023,0.026,0.026,0.026,0.026,0,0.0395,0.0382,0.0373,0.0358,0.0349,0.0335,0.0328,0.0319,0.0317,0.031,0.0293,0.0283,0.0268,0.0263,0.026,0.0242,0.0243,0.0245,0.0249,0.0237,0.0231,0.0228,0.026,0.026,0.026,0.026,0,0,0.0378,0.0361,0.0357,0.035,0.0336,0.0326,0.0313,0.0298,0.0291,0.028,0.0268,0.025,0.0251,0.0243,0.0239,0.023,0.0215,0.0232,0.0232,0.0229,0.0194,0.0192,0.0189,0.0215,0.0214,0.0214,0.0195,0,0.0362,0.0338,0.0333,0.0312,0.03,0.0298,0.0286,0.0276,0.027,0.0258,0.0251,0.0238,0.0241,0.0236,0.0227,0.0219,0.0208,0.022,0.0203,0.0202,0.0205,0.0186,0.0184,0.0167,0.0192,0.0192,0.0191,0,0.0339,0.0327,0.0306,0.0293,0.0288,0.0277,0.0264,0.0253,0.0241,0.0237,0.0228,0.0225,0.0211,0.0217,0.0196,0.0204,0.0197,0.0192,0.0191,0.0189,0.0195,0.0182,0.0161,0.0158,0.0187,0.0188,0.0188,0,0.0328,0.0308,0.0292,0.0286,0.0271,0.0264,0.0257,0.0246,0.0237,0.0226,0.022,0.0207,0.0199,0.0189,0.0182,0.0187,0.0162,0.0167,0.0157,0.0158,0.0152,0.0152,0.0128,0.0148,0.0148,0.0148,0.0148,0,0.031,0.0296,0.0287,0.0277,0.0262,0.0256,0.0241,0.0234,0.0224,0.0213,0.021,0.0199,0.0192,0.018,0.0174,0.0158,0.0155,0.0151,0.0149,0.015,0.0151,0.0145,0.0146,0.0147,0.0148,0.0148,0.0148,0,0.0295,0.0289,0.0271,0.0258,0.0255,0.0244,0.0233,0.0223,0.0217,0.0203,0.0199,0.0189,0.0175,0.0168,0.015,0.0146,0.0127,0.0127,0.0131,0.013,0.0121,0.0122,0.0092,0.0088,0.0111,0.0111,0.0111,0,0.0283,0.0273,0.0259,0.0252,0.0245,0.0232,0.0224,0.0218,0.021,0.0196,0.0187,0.0173,0.0161,0.0138,0.0129,0.0115,0.0114,0.0105,0.0112,0.0114,0.0113,0.0114,0.0112,0.0103,0.0103,0.0103,0.0103,0,0.0263,0.026,0.0248,0.0235,0.0225,0.0215,0.0204,0.0198,0.0191,0.0181,0.0166,0.0157,0.0139,0.0125,0.011,0.0103,0.0101,0.0101,0.0098,0.0098,0.0101,0.0099,0.0127,0.0101,0.0101,0.0102,0.0102,0.0102,0.0249,0.0239,0.0228,0.0215,0.0207,0.0197,0.0187,0.018,0.0168,0.0153,0.015,0.0134,0.0123,0.0103,0.0096,0.0083,0.0085,0.0081,0.0079,0.0078,0.0077,0.0104,0.0081,0.0081,0.0081,0.0081,0.0081,0,0.0227,0.022,0.0208,0.0194,0.0183,0.0184,0.0172,0.0163,0.015,0.0139,0.0128,0.0111,0.0097,0.0087,0.0073,0.0065,0.0064,0.0061,0.0061,0.0059,0.0077,0.0081,0.0062,0.0062,0.0062,0.0062,0.0062,0.0062,0.0215,0.0199,0.0195,0.0174,0.0167,0.0152,0.0145,0.0136,0.0128,0.0109,0.0098,0.0092,0.0081,0.0066,0.0053,0.0051,0.0045,0.0043,0.004,0.0056,0.0058,0.006,0.0064,0.0042,0.0042,0.0023,0.0023,0.0023]},{"header":{"parameterUnit":"m.s-1","parameterCategory":1,"la1":30.2991,"la2":30.254,"lo1":-89.0895,"lo2":-89.0444,"dy":0.0017,"dx":0.0017,"nx":28,"ny":28,"refTime":"2025-01-02T09:00:00:Z","depth":0,"parameterNumber":3,"parameterNumberName":"V-component_of_WINDS"},"data":[0,0,0,0,0,0,0,0,0,0,0,0,0,0,0,0,0,0,0,0,0,0,0,0,0,0,0,0,0,0,0,0,0,0,0,0,0,0,0,0,0,0,0,0,0,0,0,0,0,0,0,0,0,0,0,0,0,0,-3.5875,-3.5876,0,-3.5994,-3.5995,-3.5997,-3.5948,-3.5945,-3.5943,-3.594,-3.6059,-3.6064,-3.607,0,0,0,0,0,0,0,0,0,0,0,0,0,-3.5602,-3.5607,-3.5875,-3.5876,-3.5878,-3.5994,-3.5996,-3.5997,-3.5949,-3.5945,-3.5942,-3.5939,-3.6057,-3.6064,-3.6071,0,0,0,0,0,0,0,0,0,0,0,0,0,-3.5721,-3.5609,-3.5874,-3.5868,-3.5868,-3.5994,-3.5996,-3.5998,-3.5949,-3.5945,-3.5941,-3.5937,-3.6055,-3.6063,-3.6072,-3.6209,0,0,-3.6098,-3.6102,0,0,0,0,0,0,0,0,-3.5714,-3.5731,-3.5867,-3.5868,-3.5869,-3.5952,-3.5943,-3.6068,-3.5951,-3.5919,-3.594,-3.5935,-3.6026,-3.6037,-3.6069,-3.6215,-3.622,-3.6099,-3.6104,-3.6108,-3.611,0,0,0,0,0,0,0,-3.5706,-3.5725,-3.5922,-3.5869,-3.5871,-3.5858,-3.587,-3.5966,-3.5995,-3.5921,-3.5918,-3.5933,-3.6026,-3.606,-3.6071,-3.6222,-3.6099,-3.6106,-3.6112,-3.6115,-3.6488,-3.6493,0,0,0,0,0,0,-3.5698,-3.5719,-3.5918,-3.5925,-3.578,-3.5866,-3.588,-3.593,-3.5993,-3.5999,-3.5936,-3.593,-3.6048,-3.6061,-3.6075,-3.6242,-3.6108,-3.6116,-3.6121,-3.6484,-3.6489,-3.6494,0,0,0,0,0,0,-3.5692,-3.5716,-3.5913,-3.5821,-3.5845,-3.5875,-3.5932,-3.5934,-3.5969,-3.6005,-3.6009,-3.5966,-3.6045,-3.6063,-3.6177,-3.6245,-3.612,-3.6128,-3.6478,-3.6485,-3.6492,-3.6576,0,0,0,0,0,0,-3.5685,-3.5714,-3.5768,-3.5823,-3.5851,-3.6014,-3.5936,-3.594,-3.5984,-3.5977,-3.6034,-3.604,-3.6043,-3.6164,-3.6186,-3.6255,-3.6134,-3.6472,-3.6481,-3.649,-3.6568,-3.6585,-3.6601,0,0,0,0,0,-3.5675,-3.5786,-3.5771,-3.5795,-3.5918,-3.6018,-3.6034,-3.6036,-3.599,-3.6044,-3.6067,-3.6038,-3.6234,-3.6176,-3.62,-3.6273,-3.6468,-3.6479,-3.6489,-3.656,-3.6582,-3.66,0,0,0,0,0,0,-3.5737,-3.5793,-3.5777,-3.5909,-3.596,-3.601,-3.6078,-3.6059,-3.6123,-3.6114,-3.6113,-3.6126,-3.6244,-3.6269,-3.6204,-3.641,-3.6344,-3.636,-3.639,-3.6411,-3.6427,-3.6419,-3.6142,0,0,0,0,0,-3.5766,-3.5844,-3.5888,-3.6,-3.6027,-3.6048,-3.6092,-3.6089,-3.6141,-3.6162,-3.6193,-3.6244,-3.6317,-3.6365,-3.6434,-3.657,-3.6583,-3.6632,-3.6649,-3.6662,-3.6676,-3.6751,-3.6774,-3.6529,-3.6529,-3.6529,0,0,-3.5827,-3.5867,-3.5916,-3.6014,-3.6053,-3.6133,-3.6066,-3.6153,-3.6212,-3.6174,-3.6285,-3.631,-3.6366,-3.6492,-3.6549,-3.6517,-3.6747,-3.6676,-3.6686,-3.6693,-3.6765,-3.6788,-3.6809,-3.6536,-3.6535,-3.6534,0,0,-3.5979,-3.6017,-3.6115,-3.6156,-3.6216,-3.623,-3.6253,-3.6307,-3.6323,-3.6434,-3.6407,-3.6476,-3.6602,-3.6644,-3.6681,-3.6849,-3.6826,-3.6871,-3.6959,-3.7032,-3.7051,-3.7068,-3.713,-3.7152,-3.6885,-3.6885,-3.6885,0,-3.6046,-3.6167,-3.6168,-3.6258,-3.6302,-3.6272,-3.6372,-3.6411,-3.649,-3.652,-3.6483,-3.6641,-3.6676,-3.6813,-3.6854,-3.6885,-3.6912,-3.6866,-3.7048,-3.7066,-3.7082,-3.714,-3.7163,-3.6891,-3.689,-3.6889,-3.6889,0,-3.6248,-3.6332,-3.6404,-3.6483,-3.6535,-3.6629,-3.6644,-3.6696,-3.6689,-3.6706,-3.6819,-3.6861,-3.6939,-3.697,-3.6963,-3.7106,-3.7084,-3.7048,-3.6981,-3.7111,-3.7166,-3.7188,-3.6898,-3.6896,-3.6895,-3.6893,0,0,-3.6443,-3.6522,-3.6549,-3.6585,-3.6649,-3.6713,-3.6806,-3.6883,-3.6928,-3.6983,-3.7061,-3.7168,-3.7136,-3.7178,-3.7176,-3.724,-3.7372,-3.7195,-3.7197,-3.7228,-3.7533,-3.7561,-3.7587,-3.7356,-3.736,-3.7363,-3.7529,0,-3.6601,-3.6766,-3.677,-3.692,-3.6998,-3.6971,-3.7051,-3.7099,-3.7118,-3.7185,-3.7205,-3.7282,-3.7232,-3.7257,-3.732,-3.7343,-3.7433,-3.7331,-3.7429,-3.7432,-3.7418,-3.7616,-3.7646,-3.78,-3.755,-3.7554,-3.7556,0,-3.6808,-3.6873,-3.7031,-3.7085,-3.7118,-3.7191,-3.7262,-3.7328,-3.7381,-3.739,-3.7438,-3.7426,-3.752,-3.7449,-3.7578,-3.7508,-3.7548,-3.7566,-3.7572,-3.7582,-3.7503,-3.7633,-3.7849,-3.7873,-3.759,-3.7587,-3.7585,0,-3.6937,-3.7062,-3.7174,-3.7205,-3.7271,-3.7323,-3.7352,-3.7401,-3.7448,-3.7509,-3.754,-3.7611,-3.765,-3.7705,-3.7713,-3.766,-3.7843,-3.7773,-3.7853,-3.7854,-3.7895,-3.7892,-3.8122,-3.7917,-3.7917,-3.7917,-3.7916,0,-3.7115,-3.7213,-3.7233,-3.7302,-3.7411,-3.7414,-3.7522,-3.7546,-3.7591,-3.7663,-3.7643,-3.7711,-3.7716,-3.7786,-3.7792,-3.7899,-3.7916,-3.7926,-3.7927,-3.7929,-3.7928,-3.7956,-3.7946,-3.7923,-3.7921,-3.792,-3.7919,0,-3.7278,-3.7295,-3.7415,-3.7467,-3.7483,-3.7561,-3.7605,-3.7671,-3.7687,-3.7779,-3.7801,-3.7827,-3.7908,-3.792,-3.8015,-3.8019,-3.8148,-3.8137,-3.8131,-3.813,-3.8211,-3.8204,-3.8468,-3.8503,-3.8274,-3.8276,-3.8278,0,-3.7391,-3.7466,-3.7527,-3.7575,-3.7608,-3.7685,-3.7733,-3.7738,-3.7788,-3.7855,-3.7912,-3.7992,-3.8056,-3.8187,-3.8214,-3.8286,-3.8277,-3.8365,-3.8288,-3.8289,-3.8281,-3.8277,-3.8285,-3.838,-3.8383,-3.8385,-3.8386,0,-3.759,-3.7595,-3.7666,-3.774,-3.7798,-3.7856,-3.7911,-3.7951,-3.7962,-3.802,-3.8104,-3.8154,-3.8251,-3.8331,-3.8403,-3.8432,-3.8412,-3.841,-3.8433,-3.8437,-3.8432,-3.8438,-3.8173,-3.8404,-3.8403,-3.8401,-3.84,-3.84,-3.7733,-3.78,-3.7854,-3.7933,-3.7975,-3.8027,-3.8091,-3.8116,-3.8187,-3.8268,-3.8266,-3.8358,-3.8409,-3.8504,-3.8538,-3.861,-3.8581,-3.8614,-3.8623,-3.8631,-3.864,-3.8419,-3.8623,-3.8622,-3.8622,-3.8621,-3.8621,0,-3.7933,-3.7967,-3.804,-3.8118,-3.8181,-3.8156,-3.8216,-3.827,-3.8352,-3.8402,-3.8466,-3.8562,-3.8639,-3.8672,-3.8747,-3.8799,-3.8791,-3.8819,-3.8816,-3.8823,-3.866,-3.8634,-3.8823,-3.8823,-3.8823,-3.8823,-3.8823,-3.8823,-3.8045,-3.8157,-3.8168,-3.83,-3.8332,-3.8424,-3.846,-3.8508,-3.8548,-3.8658,-3.8722,-3.8743,-3.8787,-3.8865,-3.8935,-3.8942,-3.8971,-3.9003,-3.9007,-3.8855,-3.8834,-3.8815,-3.879,-3.9009,-3.9009,-3.9164,-3.9165,-3.9166]}]]